Dewpoint
73 74 72 70 71 73 71 70 67 63 62 65 65 72 72 72 72 71 72 69 68 68 66 66 66 66 67 67 66 66 67 68 69 70 70 70 71 72
71 73 74 71 71 72 72 75 70 68 66 66 67 69 71 69 71 71 70 69 66 65 65 65 65 65 64 65 65 65 65 66 67 68 68 70 70 71
74 74 74 74 70 70 74 74 76 75 69 66 69 70 73 74 71 72 70 71 69 63 63 63 63 62 62 62 62 63 63 64 65 66 66 67 68 68
73 74 73 74 75 75 77 75 71 75 71 70 73 72 71 72 72 72 70 67 69 62 61 61 60 59 59 59 59 59 60 61 62 63 64 66 66 67
73 73 73 74 74 76 75 74 75 71 71 70 68 70 70 70 70 72 72 71 68 61 60 59 59 57 57 57 56 56 55 57 59 60 61 62 63 64
74 75 74 73 73 72 73 74 73 72 72 71 69 68 69 70 70 68 67 71 69 66 61 60 60 57 56 56 57 56 55 55 55 56 57 58 59 59
74 74 74 72 70 70 74 73 73 71 70 68 69 69 68 69 68 68 66 67 69 68 67 66 64 64 58 59 56 54 55 55 54 54 54 54 54 55
73 73 73 70 69 64 64 64 67 70 70 69 70 70 70 69 69 64 64 64 68 68 66 66 62 61 54 51 55 53 55 55 54 53 52 52 52 53
73 73 70 65 68 70 64 63 61 59 61 68 67 67 67 61 62 61 62 61 62 65 65 65 62 63 58 47 52 53 54 54 53 53 52 51 50 50
71 71 68 64 61 66 69 68 64 64 65 60 62 59 61 60 60 60 60 62 65 59 61 64 62 61 59 54 53 52 53 54 53 52 51 49 48 48
66 64 64 63 56 59 65 66 65 61 61 60 60 59 58 58 58 62 58 59 59 61 55 56 62 60 59 57 55 53 53 53 53 52 52 50 48 48
61 59 56 55 53 54 59 62 61 59 59 60 63 60 60 57 55 55 55 53 55 58 55 50 51 51 50 56 55 53 52 51 52 52 52 51 48 52
61 57 53 53 52 52 53 58 57 56 57 59 62 64 61 60 60 55 54 51 49 48 50 49 46 47 47 46 54 54 53 52 52 51 51 50 48 50
58 57 56 52 50 51 54 53 53 55 57 57 59 61 62 58 55 56 58 56 53 55 56 57 47 47 45 43 43 50 52 51 51 50 50 50 49 49
60 58 54 50 50 52 53 54 54 54 53 52 51 52 52 52 53 53 54 55 54 52 48 56 51 51 47 44 43 44 45 46 49 48 48 49 48 48
55 55 53 54 54 54 56 56 55 56 54 53 52 52 51 49 48 48 46 45 43 43 50 54 56 54 46 45 44 43 43 43 47 48 46 47 48 49
52 53 53 53 52 53 54 54 55 55 53 53 52 51 49 48 47 46 45 44 42 42 42 44 53 54 53 54 43 43 44 43 47 50 51 46 47 50
50 50 50 49 48 48 50 52 54 54 54 53 51 50 47 45 45 45 45 43 41 40 41 42 43 42 43 50 46 43 42 42 45 50 51 47 46 49
50 49 49 49 50 50 48 47 47 51 55 51 51 50 48 45 44 44 44 43 41 41 41 42 41 41 38 36 42 47 41 40 42 43 47 45 44 46
48 49 49 50 49 50 50 50 51 52 52 52 50 50 49 48 45 44 43 43 42 41 40 41 41 41 40 40 39 41 45 45 43 42 43 46 46 46
49 49 50 50 51 51 52 52 52 50 50 50 50 50 50 48 47 45 43 42 42 42 40 39 43 45 46 46 41 37 41 45 46 46 46 42 40 40
50 50 50 50 51 51 50 50 49 50 51 50 50 50 49 48 46 45 44 44 43 41 40 40 44 43 43 40 37 40 39 44 46 48 50 44 43 43
50 49 49 49 49 49 48 47 47 47 48 49 48 48 49 46 48 47 44 43 41 40 41 39 39 40 40 39 40 39 42 41 45 45 42 47 47 47
Lifted_Index
-5 -5 -4 -4 -4 -5 -5 -4 -4 -3 -3 -3 -3 -3 -4 -3 -2 -2 -1 -1 -0 -0 -0 0 0 0 1 2 2 3 3 2 2 2 1 0 -1 -1
-5 -5 -4 -4 -4 -5 -5 -4 -4 -4 -3 -3 -3 -3 -3 -3 -2 -2 -1 -0 0 0 0 0 0 0 1 2 2 3 3 3 3 2 1 1 0 -0
-5 -5 -4 -4 -4 -5 -5 -5 -4 -4 -4 -3 -3 -3 -3 -3 -3 -2 -1 -1 0 0 1 1 1 1 1 1 2 3 4 5 5 4 3 2 1 1
-4 -5 -5 -5 -5 -5 -5 -5 -5 -4 -4 -4 -4 -4 -3 -3 -3 -3 -2 -1 0 1 1 1 1 1 1 1 2 4 5 6 5 5 5 5 4 3
-5 -5 -5 -5 -5 -5 -5 -5 -4 -4 -4 -4 -3 -3 -3 -3 -2 -2 -2 -1 0 1 1 1 1 1 2 2 3 4 5 6 5 5 6 7 7 7
-5 -5 -5 -5 -4 -4 -4 -4 -4 -4 -3 -3 -3 -3 -2 -2 -2 -2 -1 -1 -0 1 1 2 2 2 2 2 2 3 5 5 5 5 6 8 10 10
-4 -4 -4 -4 -3 -3 -3 -3 -3 -3 -3 -2 -2 -2 -2 -2 -1 -1 -0 -0 -0 1 2 2 2 1 1 1 2 2 4 5 5 6 8 11 12 13
-4 -4 -3 -3 -2 -2 -2 -2 -1 -1 -1 -1 -1 -1 -1 -1 -0 1 1 1 1 2 2 2 2 2 2 2 2 2 4 5 5 6 9 12 14 15
-4 -3 -3 -2 -2 -1 -1 -0 -0 -0 -0 -0 -0 0 0 1 1 2 2 2 2 3 3 3 3 3 3 3 2 3 3 4 4 5 8 11 14 15
-3 -3 -2 -2 -1 -1 -0 -0 0 0 1 1 1 1 2 2 2 3 3 3 3 3 4 3 3 4 4 4 4 4 4 4 4 4 6 9 12 13
-2 -2 -2 -1 -1 -1 -0 0 1 1 1 1 2 2 3 3 3 3 3 3 3 4 4 4 3 4 4 4 5 5 5 5 4 4 5 6 9 11
-1 -1 -1 -1 -0 0 1 2 2 3 3 3 3 3 3 3 3 3 3 3 3 4 5 5 5 5 5 6 6 6 7 6 5 5 5 6 7 9
-1 -1 -0 0 1 2 3 4 5 5 5 4 4 3 3 3 3 3 4 4 4 4 6 7 7 7 7 7 7 7 8 8 7 7 7 7 8 9
-0 0 1 2 3 5 6 7 7 7 6 6 5 4 3 3 4 5 6 6 6 7 7 8 8 8 8 8 8 8 8 8 8 8 8 8 9 10
1 1 2 3 5 7 8 8 8 7 7 6 5 4 4 5 6 7 7 8 8 8 8 8 8 8 8 8 8 8 8 8 8 7 7 7 8 8
2 3 4 6 7 8 8 8 7 6 6 5 5 5 6 7 7 8 8 9 9 9 9 8 8 8 8 8 8 9 8 7 6 6 6 6 6 6
5 6 7 8 9 8 7 6 5 5 5 5 5 6 7 8 8 8 9 9 10 10 10 9 9 8 8 8 8 8 7 6 5 4 4 4 4 5
9 9 9 9 8 7 6 5 5 5 5 6 6 7 8 8 9 9 9 10 10 10 10 10 9 9 8 7 7 7 6 5 4 3 3 2 3 3
9 9 9 8 7 6 6 6 6 6 6 7 7 7 8 8 9 9 9 10 10 10 10 10 9 8 7 6 6 5 5 4 4 3 2 2 2 2
8 7 7 6 6 6 7 7 7 7 7 7 7 7 7 8 8 9 9 9 10 9 9 8 8 7 6 5 5 4 4 4 3 2 2 2 2 2
7 7 7 7 7 7 7 7 7 7 7 7 7 7 7 7 8 8 9 9 9 8 8 7 7 6 5 4 4 4 4 4 4 3 3 2 2 2
8 8 8 8 8 8 8 8 8 8 7 7 7 7 7 7 8 8 8 8 8 7 7 6 6 5 4 4 4 4 3 3 4 4 3 3 3 3
8 9 9 9 9 9 9 9 9 8 8 7 7 7 7 8 8 8 8 7 7 7 6 6 5 5 4 5 5 4 3 3 3 4 4 4 4 3